Total_Precipitation_Accumulation
2.00 2.06 1.99 1.98 2.01 1.99 1.88 1.81 1.86 1.90 1.93 1.91 1.76 1.72 1.68 1.64 1.67 1.81 1.84 1.84 1.84 1.82 1.74 1.75 1.79 1.83 1.94 1.82 1.84 1.91 2.03 2.23 2.32 1.88 1.66 1.65 1.75 1.79 1.73 1.60 1.46 1.34 1.27
1.85 1.89 1.77 1.69 1.70 1.72 1.69 1.62 1.62 1.67 1.66 1.65 1.59 1.47 1.39 1.45 1.60 1.64 1.58 1.58 1.65 1.63 1.59 1.60 1.58 1.65 1.79 1.79 1.82 1.80 1.88 2.04 2.13 2.03 1.81 1.67 1.68 1.70 1.71 1.68 1.41 1.20 1.18
1.79 1.82 1.79 1.66 1.59 1.56 1.55 1.49 1.41 1.46 1.48 1.44 1.45 1.45 1.42 1.37 1.44 1.46 1.43 1.45 1.50 1.55 1.54 1.49 1.43 1.55 1.62 1.63 1.65 1.65 1.70 1.74 1.89 1.84 1.62 1.57 1.53 1.55 1.71 1.68 1.58 1.53 1.15
1.66 1.71 1.72 1.68 1.59 1.51 1.49 1.50 1.45 1.42 1.36 1.26 1.28 1.34 1.34 1.32 1.29 1.31 1.34 1.44 1.54 1.48 1.38 1.37 1.39 1.37 1.39 1.50 1.49 1.59 1.68 1.81 1.87 1.80 1.61 1.47 1.50 1.52 1.79 1.86 1.78 1.61 1.36
1.53 1.54 1.51 1.49 1.48 1.41 1.38 1.42 1.41 1.41 1.32 1.30 1.28 1.26 1.24 1.22 1.14 1.19 1.23 1.28 1.47 1.50 1.41 1.33 1.26 1.25 1.25 1.29 1.23 1.38 1.58 1.74 1.79 1.83 1.72 1.59 1.58 1.76 1.77 1.66 1.65 1.55 1.37
1.52 1.41 1.35 1.36 1.33 1.26 1.22 1.20 1.20 1.22 1.29 1.32 1.31 1.26 1.16 1.02 1.12 1.17 1.13 1.21 1.34 1.40 1.39 1.33 1.22 1.13 1.05 1.05 1.01 1.08 1.30 1.52 1.70 1.86 1.77 1.70 1.65 1.75 1.86 1.76 1.79 1.83 1.65
1.54 1.41 1.30 1.32 1.32 1.24 1.15 1.19 1.18 1.17 1.24 1.30 1.32 1.34 1.24 1.14 1.18 1.13 1.13 1.16 1.28 1.39 1.42 1.40 1.17 0.99 1.09 1.03 1.03 1.02 1.05 1.15 1.43 1.76 1.88 1.75 1.71 1.82 2.00 1.97 1.96 1.96 1.83
1.55 1.47 1.34 1.31 1.29 1.25 1.22 1.27 1.30 1.25 1.26 1.34 1.39 1.36 1.29 1.18 1.17 1.12 1.12 1.11 1.15 1.24 1.29 1.32 1.40 1.36 1.22 1.16 1.10 1.09 1.11 1.16 1.22 1.32 1.56 1.62 1.53 1.64 1.85 1.89 1.93 1.88 1.76
1.46 1.39 1.32 1.25 1.23 1.19 1.20 1.25 1.28 1.29 1.30 1.33 1.33 1.36 1.34 1.27 1.18 1.12 1.16 1.09 1.05 1.06 1.08 1.15 1.25 1.29 1.24 1.16 1.15 1.23 1.27 1.27 1.12 1.20 1.27 1.41 1.50 1.46 1.50 1.66 1.91 2.07 1.98
1.26 1.21 1.17 1.21 1.21 1.19 1.20 1.21 1.26 1.30 1.30 1.28 1.30 1.34 1.33 1.29 1.11 0.98 1.04 1.00 1.04 1.05 1.12 1.16 1.13 1.06 1.12 1.08 1.09 1.30 1.38 1.33 1.40 1.55 1.67 1.73 1.67 1.59 1.46 1.56 1.91 2.16 2.12
1.08 1.12 1.15 1.20 1.25 1.24 1.29 1.28 1.31 1.28 1.32 1.31 1.29 1.28 1.23 1.10 0.95 0.84 0.86 0.85 0.95 1.02 1.13 1.18 1.08 0.98 0.97 0.96 1.02 1.18 1.32 1.45 1.75 2.01 2.02 1.89 1.78 1.69 1.59 1.54 1.71 1.97 2.14
1.07 1.13 1.16 1.19 1.07 1.07 1.30 1.31 1.25 1.32 1.33 1.30 1.25 1.19 1.10 0.99 0.82 0.70 0.69 0.72 0.83 0.96 1.15 1.12 1.02 0.98 0.86 0.86 0.91 1.09 1.27 1.55 1.91 2.16 2.02 1.74 1.57 1.49 1.45 1.47 1.56 1.69 1.87
1.21 1.21 1.18 1.18 1.20 1.24 1.27 1.22 1.20 1.24 1.17 1.02 0.96 0.95 0.94 0.94 0.90 0.77 0.68 0.68 0.75 0.83 1.02 1.08 1.05 1.01 0.94 1.03 1.11 1.24 1.39 1.62 1.91 1.95 1.78 1.62 1.53 1.50 1.45 1.48 1.50 1.55 1.52
1.27 1.20 1.16 1.22 1.34 1.34 1.27 1.11 1.07 1.05 1.03 0.98 0.94 0.92 0.90 0.88 0.80 0.69 0.65 0.70 0.75 0.77 0.89 1.07 1.17 1.20 1.21 1.31 1.42 1.51 1.57 1.65 1.70 1.66 1.57 1.55 1.50 1.50 1.47 1.48 1.54 1.53 1.58
1.36 1.26 1.16 1.09 1.16 1.22 1.08 0.92 0.90 0.88 0.91 1.01 1.05 1.02 0.95 0.84 0.72 0.73 0.66 0.66 0.74 0.82 0.90 1.09 1.28 1.36 1.42 1.50 1.53 1.59 1.63 1.58 1.52 1.49 1.52 1.52 1.50 1.50 1.52 1.55 1.65 1.58 1.54
1.32 1.20 1.08 0.93 0.91 0.89 0.87 0.86 0.86 0.83 0.85 0.91 1.01 0.97 0.86 0.82 0.76 0.72 0.73 0.76 0.81 0.92 0.98 1.20 1.41 1.47 1.50 1.52 1.54 1.60 1.62 1.51 1.42 1.42 1.47 1.48 1.49 1.50 1.54 1.62 1.72 1.70 1.65
1.32 1.20 1.00 0.87 0.82 0.77 0.79 0.89 0.93 0.85 0.82 0.84 0.89 0.89 0.91 0.86 0.77 0.74 0.78 0.86 0.89 0.92 0.98 1.20 1.41 1.57 1.61 1.54 1.48 1.49 1.56 1.55 1.52 1.50 1.50 1.51 1.47 1.45 1.53 1.60 1.64 1.60 1.57
1.14 1.07 0.97 0.89 0.83 0.78 0.75 0.81 0.95 1.03 0.99 0.95 0.92 0.90 0.89 0.88 0.83 0.82 0.85 0.89 0.96 0.98 1.05 1.22 1.35 1.43 1.49 1.50 1.44 1.42 1.44 1.49 1.54 1.53 1.52 1.57 1.57 1.54 1.52 1.56 1.57 1.47 1.43
0.98 0.93 0.88 0.83 0.79 0.78 0.77 0.83 0.92 0.96 1.05 1.11 1.05 0.98 0.99 0.95 0.97 0.97 0.92 0.89 0.96 1.03 1.11 1.18 1.25 1.29 1.30 1.33 1.31 1.28 1.29 1.34 1.36 1.39 1.41 1.47 1.51 1.54 1.53 1.50 1.51 1.44 1.44
0.84 0.85 0.80 0.70 0.65 0.68 0.70 0.80 0.95 1.05 1.13 1.22 1.22 1.12 1.08 1.09 1.15 1.16 1.08 1.02 1.04 1.10 1.15 1.19 1.19 1.15 1.15 1.17 1.15 1.15 1.16 1.16 1.14 1.15 1.18 1.23 1.31 1.38 1.37 1.32 1.32 1.36 1.41
0.68 0.75 0.78 0.68 0.64 0.67 0.75 0.86 1.00 1.12 1.15 1.23 1.25 1.22 1.24 1.22 1.35 1.38 1.32 1.22 1.16 1.16 1.17 1.13 1.14 1.16 1.13 1.14 1.13 1.11 1.09 1.08 1.04 1.05 1.09 1.16 1.22 1.25 1.20 1.18 1.19 1.20 1.27
0.63 0.69 0.69 0.72 0.73 0.75 0.84 0.94 1.05 1.10 1.08 1.10 1.06 1.05 1.16 1.16 1.29 1.36 1.38 1.37 1.28 1.21 1.17 1.12 1.11 1.16 1.22 1.22 1.14 1.12 1.10 1.06 1.02 1.03 1.07 1.10 1.11 1.08 1.08 1.11 1.14 1.18 1.19
0.56 0.62 0.62 0.65 0.72 0.75 0.80 0.87 0.93 0.96 0.97 0.96 0.93 0.92 0.97 1.07 1.15 1.21 1.30 1.34 1.32 1.27 1.19 1.13 1.12 1.12 1.12 1.16 1.14 1.05 1.00 0.99 0.97 0.99 1.05 1.07 1.06 1.01 1.00 1.07 1.11 1.16 1.18
0.51 0.59 0.60 0.58 0.64 0.68 0.71 0.74 0.76 0.79 0.78 0.79 0.81 0.81 0.86 0.95 1.04 1.10 1.17 1.21 1.23 1.23 1.18 1.14 1.12 1.06 1.00 1.00 0.96 0.86 0.80 0.81 0.81 0.85 0.95 1.03 1.02 0.99 1.02 1.09 1.09 1.08 1.08
0.45 0.51 0.51 0.52 0.54 0.59 0.64 0.64 0.60 0.62 0.66 0.69 0.72 0.74 0.76 0.82 0.87 0.89 0.93 1.01 1.09 1.13 1.07 1.04 1.06 1.01 0.91 0.86 0.83 0.74 0.75 0.76 0.75 0.75 0.82 0.92 0.92 0.97 1.01 1.04 1.04 1.05 1.07
0.43 0.45 0.48 0.51 0.55 0.59 0.62 0.61 0.58 0.60 0.61 0.64 0.66 0.65 0.67 0.71 0.75 0.77 0.80 0.84 0.90 1.00 1.03 0.96 0.90 0.87 0.81 0.75 0.76 0.79 0.78 0.70 0.68 0.73 0.75 0.82 0.88 0.94 1.00 1.04 1.00 1.02 1.07